DW4657 Weather Reports


time (UTC)temp
F
wind
direction
speed
knots
gust
knots
rain 1hr
in
rain 24hr
in
rain mn
in
humidity
%
barometer
mb
20260507172020 64 188 2.6 9.6 0.00 0.37 0.28 42 1006.1
20260507171538 63 275 1.7 7.0 0.00 0.37 0.28 55 1006.1
20260507171019 63 267 2.6 7.0 0.00 0.37 0.28 50 1006.3
20260507170521 63 238 3.5 7.8 0.00 0.37 0.28 52 1006.2
20260507170047 63 256 2.6 7.8 0.00 0.37 0.28 49 1006.4
20260507165519 63 116 2.6 6.1 0.00 0.37 0.28 57 1006.4
20260507165019 63 225 2.6 5.2 0.00 0.37 0.28 54 1006.4
20260507164532 63 177 2.6 7.0 0.00 0.37 0.28 56 1006.4
20260507164019 62 227 1.7 7.0 0.00 0.37 0.28 59 1006.4
20260507163521 61 204 1.7 5.2 0.00 0.37 0.28 57 1006.5
20260507163037 60 359 1.7 4.3 0.00 0.37 0.28 59 1006.5
20260507162519 61 8 0.0 3.5 0.00 0.37 0.28 60 1006.6
20260507162020 61 294 0.9 3.5 0.00 0.37 0.28 59 1006.6
20260507161544 61 0 0.0 4.3 0.00 0.37 0.28 63 1006.7
20260507161019 60 118 1.7 5.2 0.00 0.37 0.28 64 1006.7
20260507160523 60 268 0.9 7.0 0.00 0.37 0.28 65 1006.8
20260507160038 60 31 1.7 7.0 0.00 0.37 0.28 62 1006.8
20260507155520 61 234 0.9 7.0 0.00 0.37 0.28 63 1007.0
20260507155021 60 227 0.9 7.0 0.00 0.37 0.28 65 1007.1
20260507154537 60 210 1.7 8.7 0.00 0.37 0.28 62 1007.3
20260507154019 60 237 2.6 8.7 0.00 0.37 0.28 63 1007.3
20260507153520 59 234 0.9 7.0 0.00 0.37 0.28 64 1007.3
20260507153035 59 293 0.9 7.0 0.00 0.37 0.28 63 1007.3
20260507152519 60 41 2.6 7.0 0.00 0.37 0.28 64 1007.3
20260507152021 59 209 0.9 3.5 0.00 0.37 0.28 65 1007.3
20260507151532 59 240 1.7 5.2 0.00 0.37 0.28 66 1007.4
20260507151023 59 302 2.6 5.2 0.00 0.37 0.28 62 1007.4
20260507150521 60 351 1.7 5.2 0.00 0.37 0.28 63 1007.5
20260507150038 60 252 1.7 5.2 0.00 0.37 0.28 64 1007.5
20260507145519 59 288 0.9 3.5 0.00 0.37 0.28 65 1007.6
20260507145020 58 293 0.9 4.3 0.00 0.37 0.28 66 1007.4
20260507144539 58 20 1.7 7.8 0.00 0.37 0.28 67 1007.4
20260507144020 57 44 2.6 7.8 0.00 0.37 0.28 68 1007.5
20260507143519 57 23 4.3 7.8 0.00 0.37 0.28 69 1007.4
20260507143036 57 323 0.9 6.1 0.00 0.37 0.28 70 1007.4
20260507142523 57 311 1.7 6.1 0.00 0.37 0.28 73 1007.5
20260507142020 56 296 0.9 4.3 0.00 0.37 0.28 73 1007.7
20260507141538 56 30 0.9 5.2 0.00 0.37 0.28 74 1007.6
20260507141019 56 334 1.7 7.0 0.00 0.37 0.28 74 1007.6
20260507140518 56 310 2.6 7.0 0.00 0.37 0.28 74 1007.6
20260507140037 55 336 0.9 4.3 0.00 0.37 0.28 76 1007.7
20260507135519 55 263 0.0 4.3 0.00 0.37 0.28 77 1007.6
20260507135019 54 344 1.7 7.8 0.00 0.37 0.28 80 1007.6
20260507134535 54 4 1.7 7.8 0.00 0.37 0.28 82 1007.4
20260507134019 53 37 0.9 3.5 0.00 0.37 0.28 83 1007.6
20260507133522 53 351 0.0 3.5 0.00 0.37 0.28 87 1007.6
20260507133045 53 0 0.9 3.5 0.00 0.37 0.28 88 1007.7
20260507132519 52 349 0.0 3.5 0.00 0.37 0.28 89 1007.7
20260507132019 52 227 0.9 3.5 0.00 0.37 0.28 90 1007.6
20260507131546 51 304 0.0 3.5 0.00 0.37 0.28 92 1007.6
20260507131022 51 278 0.9 3.5 0.00 0.37 0.28 91 1007.9
20260507130519 51 324 0.9 1.7 0.00 0.37 0.28 92 1008.1
20260507130041 51 29 0.0 1.7 0.00 0.37 0.28 93 1007.8
20260507125520 50 272 0.0 1.7 0.00 0.37 0.28 93 1007.8
20260507125019 50 293 0.0 0.9 0.00 0.37 0.28 94 1007.8
20260507124539 50 0 0.0 0.9 0.00 0.37 0.28 94 1007.8
20260507124019 50 0 0.0 0.9 0.00 0.37 0.28 94 1007.8
20260507123519 49 0 0.0 3.5 0.00 0.37 0.28 94 1007.8
20260507123035 49 262 0.9 3.5 0.01 0.37 0.28 94 1008.2
20260507122521 49 0 0.0 1.7 0.01 0.37 0.28 94 1008.2
20260507122022 49 0 0.0 2.6 0.01 0.37 0.28 94 1008.2
20260507121540 49 0 0.0 2.6 0.01 0.37 0.28 94 1008.2
20260507121019 48 259 0.0 2.6 0.02 0.37 0.28 94 1008.0
20260507120518 48 0 0.0 2.6 0.03 0.37 0.28 94 1007.8
20260507120039 48 0 0.0 0.9 0.04 0.37 0.28 94 1007.7
20260507115524 48 0 0.0 0.9 0.04 0.37 0.28 94 1007.6
20260507115018 48 0 0.0 0.0 0.04 0.37 0.28 94 1007.8
20260507114537 48 0 0.0 0.0 0.04 0.37 0.28 94 1007.7
20260507114019 47 0 0.0 0.0 0.04 0.37 0.28 94 1007.8
20260507113519 47 0 0.0 0.0 0.03 0.36 0.27 93 1007.5
20260507113039 47 0 0.0 0.0 0.03 0.36 0.27 93 1008.1
20260507112519 47 0 0.0 0.0 0.03 0.36 0.27 93 1008.0
20260507112019 47 0 0.0 0.0 0.03 0.36 0.27 93 1007.3
20260507111537 47 0 0.0 0.0 0.03 0.36 0.27 93 1007.6
20260507111019 47 0 0.0 0.0 0.02 0.35 0.26 93 1007.8
20260507110519 47 0 0.0 0.0 0.02 0.34 0.25 93 1007.9
20260507110048 47 0 0.0 0.0 0.01 0.33 0.24 93 1008.0
20260507105519 47 0 0.0 1.7 0.02 0.33 0.24 93 1007.4
20260507105019 47 0 0.0 1.7 0.02 0.33 0.24 93 1007.2
20260507104543 47 0 0.0 0.9 0.03 0.33 0.24 93 1007.1
20260507104020 47 0 0.0 0.9 0.03 0.33 0.24 93 1007.1
20260507103520 47 0 0.0 0.9 0.03 0.33 0.24 93 1007.2
20260507103104 47 21 0.0 0.9 0.03 0.33 0.24 93 1007.4
20260507102522 47 0 0.0 0.9 0.03 0.33 0.24 93 1007.5
20260507102019 47 28 0.0 0.9 0.03 0.33 0.24 93 1007.5
20260507101540 48 0 0.0 1.7 0.03 0.33 0.24 93 1007.7
20260507101022 48 0 0.0 1.7 0.03 0.33 0.24 93 1007.9
20260507100518 48 0 0.0 0.0 0.02 0.32 0.23 93 1007.4
20260507100048 48 0 0.0 0.0 0.02 0.32 0.23 93 1007.2
20260507095519 48 0 0.0 0.0 0.02 0.31 0.22 93 1007.2
20260507095020 48 0 0.0 0.9 0.01 0.30 0.21 92 1007.3
20260507094538 48 15 0.0 0.9 0.01 0.30 0.21 92 1007.3
20260507094019 48 0 0.0 0.0 0.02 0.30 0.21 92 1007.0
20260507093520 49 0 0.0 0.0 0.02 0.30 0.21 93 1007.1
20260507093037 49 0 0.0 0.9 0.03 0.30 0.21 92 1007.0
20260507092519 49 0 0.0 1.7 0.03 0.30 0.21 92 1007.0
20260507092019 49 0 0.0 1.7 0.03 0.30 0.21 92 1007.0
20260507091543 50 300 0.0 1.7 0.04 0.30 0.21 93 1007.3
20260507091023 50 44 0.0 0.9 0.07 0.30 0.21 93 1007.4
20260507090519 50 0 0.0 1.7 0.10 0.30 0.21 93 1007.1
20260507090038 50 0 0.0 2.6 0.11 0.30 0.21 93 1006.9
20260507085518 50 27 0.0 2.6 0.12 0.29 0.20 93 1006.5
20260507085019 50 0 0.0 0.9 0.12 0.29 0.20 92 1006.6
20260507084544 50 0 0.0 0.9 0.13 0.29 0.20 92 1006.8
20260507084019 50 355 0.0 1.7 0.14 0.28 0.19 92 1006.8
20260507083520 51 0 0.0 1.7 0.17 0.28 0.19 92 1006.7
20260507083038 51 6 0.0 6.1 0.18 0.27 0.18 92 1006.7
20260507082519 51 266 0.0 6.1 0.18 0.27 0.18 92 1006.8
20260507082020 52 0 0.0 2.6 0.18 0.27 0.18 92 1006.3
20260507081538 52 0 0.0 2.6 0.16 0.25 0.16 92 1006.9
20260507081021 53 325 0.0 1.7 0.14 0.23 0.14 92 1007.1
20260507080518 53 270 0.0 0.9 0.11 0.20 0.11 92 1006.9
20260507080044 53 0 0.0 0.9 0.09 0.18 0.09 92 1007.0
20260507075519 53 262 0.0 0.9 0.08 0.17 0.08 92 1006.9
20260507075019 54 0 0.0 1.7 0.07 0.16 0.07 92 1006.7
20260507074540 54 0 0.0 1.7 0.07 0.16 0.07 92 1006.5
20260507074019 54 314 0.9 2.6 0.04 0.13 0.04 92 1006.4
20260507073519 55 316 0.9 2.6 0.02 0.11 0.02 93 1005.9
20260507073042 55 298 0.0 1.7 0.00 0.09 0.00 93 1006.0
20260507072520 55 0 0.0 1.7 0.00 0.09 0.00 93 1005.5
20260507072019 56 307 0.0 0.9 0.00 0.09 0.00 94 1005.4
20260507071538 56 0 0.0 0.0 0.00 0.09 0.00 94 1005.6
20260507071019 56 0 0.0 0.0 0.00 0.09 0.00 94 1005.6
20260507070519 56 0 0.0 0.0 0.00 0.09 0.00 94 1005.4
20260507070058 56 0 0.0 0.0 0.00 0.09 0.00 94 1005.6
20260507065518 56 0 0.0 0.0 0.00 0.09 0.00 94 1005.6
20260507065019 56 0 0.0 0.0 0.00 0.09 0.00 94 1005.6
20260507064546 56 0 0.0 0.0 0.00 0.09 0.00 94 1005.6
20260507064019 56 0 0.0 0.0 0.00 0.09 0.00 94 1005.5
20260507063519 56 0 0.0 0.9 0.00 0.09 0.00 94 1005.6
20260507063037 56 0 0.0 0.9 0.00 0.09 0.00 94 1005.6
20260507062519 56 0 0.0 0.0 0.00 0.09 0.00 94 1005.7
20260507062019 56 0 0.0 0.0 0.00 0.09 0.00 94 1005.5
20260507061534 56 0 0.0 0.9 0.00 0.09 0.00 94 1005.8
20260507061019 56 0 0.0 0.9 0.00 0.09 0.00 94 1005.9
20260507060522 56 150 0.0 0.9 0.00 0.09 0.00 94 1006.0
20260507060035 56 0 0.0 0.9 0.00 0.09 0.00 94 1006.1
20260507055519 56 0 0.0 2.6 0.00 0.09 0.00 94 1006.0
20260507055018 56 0 0.9 2.6 0.00 0.09 0.00 94 1006.2
20260507054559 56 0 0.0 5.2 0.00 0.09 0.00 94 1006.2
20260507054022 56 0 1.7 5.2 0.00 0.09 0.00 94 1006.3
20260507053519 56 212 0.9 3.5 0.00 0.09 0.00 94 1006.2
20260507053038 56 219 0.0 2.6 0.00 0.09 0.00 94 1006.3
20260507052519 56 0 0.0 3.5 0.00 0.09 0.00 94 1006.4
20260507052019 56 224 0.0 3.5 0.00 0.09 0.00 94 1006.2
20260507051541 56 202 0.9 3.5 0.00 0.09 0.00 94 1006.4
20260507051019 56 237 0.9 3.5 0.00 0.09 0.00 94 1006.4
20260507050519 56 225 0.9 3.5 0.00 0.09 0.00 94 1006.5
20260507050043 56 0 0.9 3.5 0.00 0.09 0.00 94 1006.6
20260507045523 56 157 0.9 3.5 0.00 0.09 0.00 94 1006.6
20260507045019 56 0 0.0 3.5 0.00 0.09 0.00 94 1006.6
20260507044539 56 225 0.9 3.5 0.00 0.09 0.00 94 1006.6
20260507044018 56 255 0.0 2.6 0.00 0.09 0.00 94 1006.7
20260507043519 56 0 0.9 2.6 0.00 0.09 0.00 94 1006.6
20260507043039 56 189 0.9 2.6 0.00 0.09 0.00 94 1006.5
20260507042519 56 0 0.9 3.5 0.00 0.09 0.00 94 1006.4
20260507042018 56 221 0.9 3.5 0.00 0.09 0.00 94 1006.2
20260507041542 56 0 0.0 2.6 0.00 0.09 0.00 94 1006.3
20260507041019 56 262 0.9 2.6 0.00 0.09 0.00 94 1006.4
20260507040519 56 220 0.0 2.6 0.00 0.09 0.00 94 1006.4
20260507040042 56 210 0.9 5.2 0.00 0.09 0.00 94 1006.2
20260507035519 56 202 1.7 6.1 0.00 0.09 0.09 94 1006.2
20260507035018 56 142 2.6 7.0 0.00 0.09 0.09 94 1006.4
20260507034538 56 156 0.9 7.0 0.00 0.09 0.09 94 1006.5
20260507034019 56 162 2.6 7.0 0.00 0.09 0.09 94 1006.7
20260507033521 56 219 2.6 7.8 0.00 0.09 0.09 94 1006.6
20260507033037 55 210 1.7 7.8 0.00 0.09 0.09 94 1006.7
20260507032519 55 188 1.7 11.3 0.00 0.09 0.09 94 1006.5
20260507032019 55 181 3.5 11.3 0.00 0.09 0.09 94 1006.5
20260507031537 55 200 2.6 7.0 0.00 0.09 0.09 94 1006.6
20260507031024 55 213 0.9 5.2 0.00 0.09 0.09 94 1006.6
20260507030519 55 224 1.7 7.0 0.00 0.09 0.09 94 1006.3
20260507030039 55 218 1.7 8.7 0.00 0.09 0.09 94 1006.4
20260507025519 55 159 3.5 8.7 0.00 0.09 0.09 94 1006.3
20260507025018 55 153 2.6 7.8 0.00 0.09 0.09 94 1006.4
20260507024537 55 109 2.6 7.8 0.00 0.09 0.09 93 1006.4
20260507024018 55 259 2.6 8.7 0.00 0.09 0.09 93 1006.5
20260507023522 55 219 2.6 8.7 0.00 0.09 0.09 93 1006.4
20260507023037 55 213 2.6 7.0 0.00 0.09 0.09 93 1006.3
20260507022520 55 217 1.7 7.8 0.00 0.09 0.09 93 1006.4
20260507022019 55 250 2.6 7.8 0.00 0.09 0.09 93 1006.5
20260507021538 55 226 1.7 7.0 0.00 0.09 0.09 93 1006.6
20260507021021 55 195 2.6 7.0 0.00 0.09 0.09 93 1006.5
20260507020520 55 208 2.6 6.1 0.00 0.09 0.09 93 1006.6
20260507020036 56 201 2.6 6.1 0.00 0.09 0.09 93 1006.7
20260507015518 56 156 2.6 7.0 0.00 0.09 0.09 93 1006.7
20260507015019 56 82 1.7 7.8 0.00 0.09 0.09 93 1006.9
20260507014547 55 189 3.5 8.7 0.00 0.09 0.09 93 1006.9
20260507014019 55 188 3.5 8.7 0.00 0.09 0.09 93 1006.7
20260507013520 55 226 2.6 7.0 0.00 0.09 0.09 93 1006.9
20260507013045 56 213 1.7 8.7 0.00 0.09 0.09 93 1007.0
20260507012521 56 172 3.5 8.7 0.00 0.09 0.09 93 1006.9
20260507012023 55 120 2.6 7.8 0.00 0.09 0.09 93 1007.0
20260507011543 55 250 2.6 7.8 0.00 0.09 0.09 93 1007.1
20260507011019 56 222 3.5 7.8 0.00 0.09 0.09 93 1007.2
20260507010520 56 205 3.5 7.8 0.00 0.09 0.09 93 1007.1
20260507010043 56 221 3.5 8.7 0.00 0.09 0.09 93 1007.1
20260507005519 55 101 3.5 8.7 0.01 0.09 0.09 93 1007.2
20260507005021 55 46 3.5 7.8 0.01 0.09 0.09 93 1007.1
20260507004537 55 165 1.7 9.6 0.02 0.09 0.09 93 1007.1
20260507004020 55 176 3.5 9.6 0.02 0.09 0.09 93 1007.1
20260507003519 55 225 3.5 8.7 0.02 0.09 0.09 93 1007.0
20260507003032 55 182 1.7 8.7 0.02 0.09 0.09 93 1006.9
20260507002524 55 130 3.5 13.0 0.02 0.09 0.09 93 1007.0
20260507002019 56 217 4.3 13.0 0.02 0.09 0.09 93 1007.1
20260507001553 56 222 3.5 11.3 0.02 0.09 0.09 93 1007.0
20260507001018 56 196 4.3 12.2 0.02 0.09 0.09 93 1007.0
20260507000522 56 219 4.3 12.2 0.02 0.09 0.09 93 1007.0
20260507000037 56 259 4.3 12.2 0.02 0.09 0.09 93 1006.9
20260506235519 56 188 5.2 11.3 0.01 0.08 0.08 93 1006.9
20260506235018 56 250 3.5 9.6 0.01 0.08 0.08 93 1006.9
20260506234549 56 203 4.3 10.4 0.00 0.07 0.07 92 1006.9
20260506234020 56 172 3.5 12.2 0.00 0.07 0.07 92 1006.9
20260506233519 56 230 5.2 12.2 0.00 0.07 0.07 92 1007.0
20260506233108 56 206 4.3 13.0 0.00 0.07 0.07 92 1007.1
20260506232520 56 157 5.2 13.0 0.01 0.07 0.07 92 1006.9
20260506232018 56 203 5.2 11.3 0.01 0.07 0.07 92 1007.1
20260506231537 56 110 5.2 11.3 0.02 0.07 0.07 92 1007.0
20260506231019 56 194 5.2 11.3 0.02 0.07 0.07 92 1007.1
20260506230517 56 253 3.5 11.3 0.03 0.07 0.07 92 1007.1
20260506230036 56 86 4.3 11.3 0.03 0.07 0.07 92 1007.0
20260506225518 56 221 3.5 11.3 0.03 0.07 0.07 92 1007.0
20260506225019 56 202 3.5 8.7 0.03 0.07 0.07 92 1006.9
20260506224534 56 193 5.2 10.4 0.03 0.07 0.07 92 1006.9
20260506224018 56 33 4.3 10.4 0.03 0.07 0.07 91 1007.0
20260506223518 56 185 4.3 8.7 0.03 0.07 0.07 91 1007.0
20260506223038 56 209 4.3 12.2 0.03 0.07 0.07 91 1006.9
20260506222519 56 215 3.5 12.2 0.02 0.06 0.06 91 1007.2
20260506222019 56 184 3.5 10.4 0.02 0.06 0.06 91 1007.3
20260506221550 56 232 2.6 10.4 0.02 0.05 0.05 91 1007.4
20260506221018 56 184 4.3 14.8 0.01 0.04 0.04 91 1007.4
20260506220518 56 133 5.2 14.8 0.01 0.04 0.04 90 1007.5
20260506220043 57 215 5.2 12.2 0.01 0.04 0.04 90 1007.5
20260506215519 57 176 5.2 13.9 0.01 0.04 0.04 90 1007.5
20260506215018 57 184 4.3 13.9 0.01 0.04 0.04 90 1007.5
20260506214537 57 231 5.2 12.2 0.01 0.04 0.04 90 1007.6
20260506214017 57 165 5.2 17.4 0.01 0.04 0.04 90 1007.5
20260506213520 57 160 7.0 17.4 0.01 0.04 0.04 90 1007.5
20260506213041 57 193 7.0 13.9 0.01 0.04 0.04 90 1007.5
20260506212519 57 227 6.1 10.4 0.01 0.04 0.04 89 1007.7
20260506212019 57 224 5.2 13.9 0.00 0.03 0.03 89 1007.7
20260506211545 57 167 7.0 13.9 0.00 0.03 0.03 89 1007.7
20260506211019 57 163 5.2 15.6 0.00 0.03 0.03 89 1007.8
20260506210519 57 127 4.3 15.6 0.00 0.03 0.03 89 1007.8
20260506210045 57 174 4.3 12.2 0.01 0.03 0.03 89 1007.9
20260506205518 57 109 4.3 12.2 0.01 0.03 0.03 88 1007.8
20260506205018 57 239 6.1 15.6 0.02 0.03 0.03 88 1007.8
20260506204538 57 188 6.1 16.5 0.02 0.03 0.03 88 1008.0
20260506204019 57 220 4.3 16.5 0.03 0.03 0.03 88 1007.9
20260506203519 57 231 5.2 14.8 0.03 0.03 0.03 88 1007.9
20260506203038 58 170 6.1 13.9 0.03 0.03 0.03 88 1007.9
20260506202602 58 219 3.5 14.8 0.03 0.03 0.03 89 1007.9
20260506202018 58 181 4.3 14.8 0.03 0.03 0.03 88 1008.1
20260506201540 58 219 4.3 10.4 0.03 0.03 0.03 88 1008.2
20260506201020 58 179 4.3 10.4 0.03 0.03 0.03 88 1008.0
20260506200521 59 162 4.3 7.8 0.03 0.03 0.03 87 1008.2
20260506200037 59 183 3.5 8.7 0.02 0.02 0.02 86 1008.1
20260506195521 59 193 2.6 11.3 0.01 0.01 0.01 85 1008.2
20260506195018 59 181 5.2 12.2 0.01 0.01 0.01 85 1008.3
20260506194537 60 162 5.2 12.2 0.01 0.01 0.01 83 1008.4
20260506194019 60 135 4.3 10.4 0.00 0.00 0.00 83 1008.5
20260506193520 61 252 3.5 11.3 0.00 0.00 0.00 82 1008.4
20260506193044 61 165 3.5 12.2 0.00 0.00 0.00 81 1008.4
20260506192522 61 218 4.3 13.0 0.00 0.00 0.00 80 1008.2
20260506192019 61 217 5.2 13.0 0.00 0.00 0.00 79 1008.4
20260506191534 62 217 3.5 18.2 0.00 0.00 0.00 79 1008.5
20260506191019 62 272 6.1 18.2 0.00 0.00 0.00 78 1008.5
20260506190522 62 289 4.3 14.8 0.00 0.00 0.00 78 1008.5
20260506190037 62 200 6.1 14.8 0.00 0.00 0.00 78 1008.5
20260506185518 62 157 6.1 13.0 0.00 0.00 0.00 78 1008.4
20260506185020 62 220 5.2 14.8 0.00 0.00 0.00 78 1008.1
20260506184539 62 158 6.1 14.8 0.00 0.00 0.00 78 1008.3
20260506184021 62 225 5.2 13.9 0.00 0.00 0.00 77 1008.6
20260506183521 62 182 6.1 16.5 0.00 0.00 0.00 77 1008.6
20260506183033 63 142 7.8 19.1 0.00 0.00 0.00 77 1008.6
20260506182518 63 187 6.1 19.1 0.00 0.00 0.00 77 1008.6
20260506182022 63 212 7.0 15.6 0.00 0.00 0.00 76 1008.5
20260506181553 64 160 4.3 13.0 0.00 0.00 0.00 76 1008.7
20260506181019 64 179 5.2 15.6 0.00 0.00 0.00 76 1008.8
20260506180519 64 193 5.2 15.6 0.00 0.00 0.00 75 1008.9
20260506180039 64 214 7.0 13.9 0.00 0.00 0.00 75 1009.1
20260506175521 64 303 6.1 15.6 0.00 0.00 0.00 75 1009.1
20260506175020 65 181 6.1 18.2 0.00 0.00 0.00 75 1009.1
20260506174538 65 207 7.0 18.2 0.00 0.00 0.00 75 1009.2
20260506174021 65 231 6.1 13.9 0.00 0.00 0.00 74 1009.3
20260506173522 65 195 7.0 14.8 0.00 0.00 0.00 74 1009.4
20260506173103 65 212 6.1 16.5 0.00 0.00 0.00 74 1009.4
20260506172518 65 141 7.8 21.7 0.00 0.00 0.00 74 1009.2